Year,Month,Day,Hour,Minute,Value (Times are PST for temperature in C)
2017,06,15,00,00,12.70
2017,06,15,00,01,12.70
2017,06,15,00,02,12.70
2017,06,15,00,03,12.70
2017,06,15,00,04,12.70
2017,06,15,00,05,12.70
2017,06,15,00,06,12.60
2017,06,15,00,07,12.60
2017,06,15,00,08,12.60
2017,06,15,00,09,12.60
2017,06,15,00,10,12.60
2017,06,15,00,11,12.60
2017,06,15,00,12,12.60
2017,06,15,00,13,12.60
2017,06,15,00,14,12.60
2017,06,15,00,15,12.60
2017,06,15,00,16,12.60
2017,06,15,00,17,12.60
2017,06,15,00,18,12.60
2017,06,15,00,19,12.60
2017,06,15,00,20,12.60
2017,06,15,00,21,12.60
2017,06,15,00,22,12.60
2017,06,15,00,23,12.60
2017,06,15,00,24,12.60
2017,06,15,00,25,12.60
2017,06,15,00,26,12.60
2017,06,15,00,27,12.50
2017,06,15,00,28,12.50
2017,06,15,00,29,12.50
2017,06,15,00,30,12.50
2017,06,15,00,31,12.50
2017,06,15,00,32,12.50
2017,06,15,00,33,12.50
2017,06,15,00,34,12.50
2017,06,15,00,35,12.40
2017,06,15,00,36,12.40
2017,06,15,00,37,12.40
2017,06,15,00,38,12.40
2017,06,15,00,39,12.40
2017,06,15,00,40,12.40
2017,06,15,00,41,12.40
2017,06,15,00,42,12.40
2017,06,15,00,43,12.40
2017,06,15,00,44,12.30
2017,06,15,00,45,12.30
2017,06,15,00,46,12.30
2017,06,15,00,47,12.30
2017,06,15,00,48,12.30
2017,06,15,00,49,12.30
2017,06,15,00,50,12.30
2017,06,15,00,51,12.30
2017,06,15,00,52,12.30
2017,06,15,00,53,12.30
2017,06,15,00,54,12.30
2017,06,15,00,55,12.30
2017,06,15,00,56,12.30
2017,06,15,00,57,12.30
2017,06,15,00,58,12.30
2017,06,15,00,59,12.30
2017,06,15,01,00,12.20
2017,06,15,01,01,12.20
2017,06,15,01,02,12.20
2017,06,15,01,03,12.20
2017,06,15,01,04,12.20
2017,06,15,01,05,12.20
2017,06,15,01,06,12.20
2017,06,15,01,07,12.20
2017,06,15,01,08,12.20
2017,06,15,01,09,12.20
2017,06,15,01,10,12.10
2017,06,15,01,11,12.10
2017,06,15,01,12,12.10
2017,06,15,01,13,12.10
2017,06,15,01,14,12.10
2017,06,15,01,15,12.10
2017,06,15,01,16,12.10
2017,06,15,01,17,12.10
2017,06,15,01,18,12.00
2017,06,15,01,19,12.00
2017,06,15,01,20,12.00
2017,06,15,01,21,12.00
2017,06,15,01,22,11.90
2017,06,15,01,23,11.90
2017,06,15,01,24,11.90
2017,06,15,01,25,11.90
2017,06,15,01,26,11.90
2017,06,15,01,27,11.90
2017,06,15,01,28,11.90
2017,06,15,01,29,11.80
2017,06,15,01,30,11.80
2017,06,15,01,31,11.80
2017,06,15,01,32,11.80
2017,06,15,01,33,11.80
2017,06,15,01,34,11.80
2017,06,15,01,35,11.80
2017,06,15,01,36,11.80
2017,06,15,01,37,11.80
2017,06,15,01,38,11.80
2017,06,15,01,39,11.80
2017,06,15,01,40,11.80
2017,06,15,01,41,11.80
2017,06,15,01,42,11.80
2017,06,15,01,43,11.70
2017,06,15,01,44,11.70
2017,06,15,01,45,11.70
2017,06,15,01,46,11.70
2017,06,15,01,47,11.70
2017,06,15,01,48,11.70
2017,06,15,01,49,11.80
2017,06,15,01,50,11.70
2017,06,15,01,51,11.70
2017,06,15,01,52,11.70
2017,06,15,01,53,11.70
2017,06,15,01,54,11.70
2017,06,15,01,55,11.70
2017,06,15,01,56,11.80
2017,06,15,01,57,11.70
2017,06,15,01,58,11.70
2017,06,15,01,59,11.70
2017,06,15,02,00,11.70
2017,06,15,02,01,11.70
2017,06,15,02,02,11.70
2017,06,15,02,03,11.70
2017,06,15,02,04,11.70
2017,06,15,02,05,11.70
2017,06,15,02,06,11.70
2017,06,15,02,07,11.70
2017,06,15,02,08,11.70
2017,06,15,02,09,11.70
2017,06,15,02,10,11.70
2017,06,15,02,11,11.70
2017,06,15,02,12,11.70
2017,06,15,02,13,11.70
2017,06,15,02,14,11.70
2017,06,15,02,15,11.70
2017,06,15,02,16,11.70
2017,06,15,02,17,11.70
2017,06,15,02,18,11.70
2017,06,15,02,19,11.70
2017,06,15,02,20,11.70
2017,06,15,02,21,11.70
2017,06,15,02,22,11.70
2017,06,15,02,23,11.70
2017,06,15,02,24,11.70
2017,06,15,02,25,11.70
2017,06,15,02,26,11.70
2017,06,15,02,27,11.70
2017,06,15,02,28,11.70
2017,06,15,02,29,11.70
2017,06,15,02,30,11.70
2017,06,15,02,31,11.60
2017,06,15,02,32,11.60
2017,06,15,02,33,11.60
2017,06,15,02,34,11.60
2017,06,15,02,35,11.60
2017,06,15,02,36,11.60
2017,06,15,02,37,11.60
2017,06,15,02,38,11.60
2017,06,15,02,39,11.60
2017,06,15,02,40,11.60
2017,06,15,02,41,11.60
2017,06,15,02,42,11.60
2017,06,15,02,43,11.60
2017,06,15,02,44,11.60
2017,06,15,02,45,11.60
2017,06,15,02,46,11.60
2017,06,15,02,47,11.60
2017,06,15,02,48,11.60
2017,06,15,02,49,11.60
2017,06,15,02,50,11.60
2017,06,15,02,51,11.60
2017,06,15,02,52,11.60
2017,06,15,02,53,11.60
2017,06,15,02,54,11.60
2017,06,15,02,55,11.60
2017,06,15,02,56,11.60
2017,06,15,02,57,11.60
2017,06,15,02,58,11.60
2017,06,15,02,59,11.60
2017,06,15,03,00,11.60
2017,06,15,03,01,11.60
2017,06,15,03,02,11.60
2017,06,15,03,03,11.60
2017,06,15,03,04,11.60
2017,06,15,03,05,11.60
2017,06,15,03,06,11.60
2017,06,15,03,07,11.60
2017,06,15,03,08,11.60
2017,06,15,03,09,11.60
2017,06,15,03,10,11.60
2017,06,15,03,11,11.60
2017,06,15,03,12,11.60
2017,06,15,03,13,11.60
2017,06,15,03,14,11.60
2017,06,15,03,15,11.60
2017,06,15,03,16,11.50
2017,06,15,03,17,11.50
2017,06,15,03,18,11.50
2017,06,15,03,19,11.50
2017,06,15,03,20,11.50
2017,06,15,03,21,11.50
2017,06,15,03,22,11.50
2017,06,15,03,23,11.50
2017,06,15,03,24,11.50
2017,06,15,03,25,11.50
2017,06,15,03,26,11.50
2017,06,15,03,27,11.50
2017,06,15,03,28,11.50
2017,06,15,03,29,11.50
2017,06,15,03,30,11.50
2017,06,15,03,31,11.50
2017,06,15,03,32,11.50
2017,06,15,03,33,11.60
2017,06,15,03,34,11.60
2017,06,15,03,35,11.60
2017,06,15,03,36,11.60
2017,06,15,03,37,11.60
2017,06,15,03,38,11.60
2017,06,15,03,39,11.60
2017,06,15,03,40,11.60
2017,06,15,03,41,11.60
2017,06,15,03,42,11.60
2017,06,15,03,43,11.60
2017,06,15,03,44,11.60
2017,06,15,03,45,11.60
2017,06,15,03,46,11.60
2017,06,15,03,47,11.60
2017,06,15,03,48,11.60
2017,06,15,03,49,11.60
2017,06,15,03,50,11.60
2017,06,15,03,51,11.50
2017,06,15,03,52,11.50
2017,06,15,03,53,11.50
2017,06,15,03,54,11.50
2017,06,15,03,55,11.50
2017,06,15,03,56,11.50
2017,06,15,03,57,11.50
2017,06,15,03,58,11.50
2017,06,15,03,59,11.50
2017,06,15,04,00,11.50
2017,06,15,04,01,11.50
2017,06,15,04,02,11.50
2017,06,15,04,03,11.50
2017,06,15,04,04,11.50
2017,06,15,04,05,11.50
2017,06,15,04,06,11.50
2017,06,15,04,07,11.50
2017,06,15,04,08,11.50
2017,06,15,04,09,11.40
2017,06,15,04,10,11.40
2017,06,15,04,11,11.40
2017,06,15,04,12,11.40
2017,06,15,04,13,11.40
2017,06,15,04,14,11.40
2017,06,15,04,15,11.40
2017,06,15,04,16,11.40
2017,06,15,04,17,11.40
2017,06,15,04,18,11.40
2017,06,15,04,19,11.40
2017,06,15,04,20,11.40
2017,06,15,04,21,11.40
2017,06,15,04,22,11.40
2017,06,15,04,23,11.40
2017,06,15,04,24,11.40
2017,06,15,04,25,11.40
2017,06,15,04,26,11.40
2017,06,15,04,27,11.40
2017,06,15,04,28,11.40
2017,06,15,04,29,11.40
2017,06,15,04,30,11.30
2017,06,15,04,31,11.30
2017,06,15,04,32,11.30
2017,06,15,04,33,11.30
2017,06,15,04,34,11.30
2017,06,15,04,35,11.30
2017,06,15,04,36,11.30
2017,06,15,04,37,11.30
2017,06,15,04,38,11.30
2017,06,15,04,39,11.20
2017,06,15,04,40,11.20
2017,06,15,04,41,11.20
2017,06,15,04,42,11.20
2017,06,15,04,43,11.20
2017,06,15,04,44,11.30
2017,06,15,04,45,11.30
2017,06,15,04,46,11.30
2017,06,15,04,47,11.30
2017,06,15,04,48,11.30
2017,06,15,04,49,11.30
2017,06,15,04,50,11.30
2017,06,15,04,51,11.30
2017,06,15,04,52,11.30
2017,06,15,04,53,11.30
2017,06,15,04,54,11.30
2017,06,15,04,55,11.30
2017,06,15,04,56,11.30
2017,06,15,04,57,11.20
2017,06,15,04,58,11.20
2017,06,15,04,59,11.20
2017,06,15,05,00,11.20
2017,06,15,05,01,11.20
2017,06,15,05,02,11.20
2017,06,15,05,03,11.20
2017,06,15,05,04,11.20
2017,06,15,05,05,11.20
2017,06,15,05,06,11.20
2017,06,15,05,07,11.20
2017,06,15,05,08,11.20
2017,06,15,05,09,11.20
2017,06,15,05,10,11.20
2017,06,15,05,11,11.20
2017,06,15,05,12,11.20
2017,06,15,05,13,11.20
2017,06,15,05,14,11.20
2017,06,15,05,15,11.20
2017,06,15,05,16,11.20
2017,06,15,05,17,11.20
2017,06,15,05,18,11.20
2017,06,15,05,19,11.20
2017,06,15,05,20,11.20
2017,06,15,05,21,11.20
2017,06,15,05,22,11.20
2017,06,15,05,23,11.20
2017,06,15,05,24,11.10
2017,06,15,05,25,11.10
2017,06,15,05,26,11.10
2017,06,15,05,27,11.10
2017,06,15,05,28,11.10
2017,06,15,05,29,11.10
2017,06,15,05,30,11.10
2017,06,15,05,31,11.10
2017,06,15,05,32,11.10
2017,06,15,05,33,11.10
2017,06,15,05,34,11.20
2017,06,15,05,35,11.20
2017,06,15,05,36,11.20
2017,06,15,05,37,11.20
2017,06,15,05,38,11.20
2017,06,15,05,39,11.20
2017,06,15,05,40,11.10
2017,06,15,05,41,11.10
2017,06,15,05,42,11.10
2017,06,15,05,43,11.20
2017,06,15,05,44,11.20
2017,06,15,05,45,11.20
2017,06,15,05,46,11.20
2017,06,15,05,47,11.20
2017,06,15,05,48,11.20
2017,06,15,05,49,11.20
2017,06,15,05,50,11.20
2017,06,15,05,51,11.20
2017,06,15,05,52,11.20
2017,06,15,05,53,11.20
2017,06,15,05,54,11.20
2017,06,15,05,55,11.20
2017,06,15,05,56,11.20
2017,06,15,05,57,11.20
2017,06,15,05,58,11.20
2017,06,15,05,59,11.20
2017,06,15,06,00,11.10
2017,06,15,06,01,11.10
2017,06,15,06,02,11.10
2017,06,15,06,03,11.10
2017,06,15,06,04,11.10
2017,06,15,06,05,11.10
2017,06,15,06,06,11.10
2017,06,15,06,07,11.10
2017,06,15,06,08,11.10
2017,06,15,06,09,11.10
2017,06,15,06,10,11.10
2017,06,15,06,11,11.10
2017,06,15,06,12,11.10
2017,06,15,06,13,11.10
2017,06,15,06,14,11.10
2017,06,15,06,15,11.10
2017,06,15,06,16,11.10
2017,06,15,06,17,11.10
2017,06,15,06,18,11.10
2017,06,15,06,19,11.10
2017,06,15,06,20,11.10
2017,06,15,06,21,11.10
2017,06,15,06,22,11.10
2017,06,15,06,23,11.10
2017,06,15,06,24,11.10
2017,06,15,06,25,11.10
2017,06,15,06,26,11.10
2017,06,15,06,27,11.10
2017,06,15,06,28,11.10
2017,06,15,06,29,11.10
2017,06,15,06,30,11.10
2017,06,15,06,31,11.10
2017,06,15,06,32,11.10
2017,06,15,06,33,11.10
2017,06,15,06,34,11.10
2017,06,15,06,35,11.10
2017,06,15,06,36,11.10
2017,06,15,06,37,11.10
2017,06,15,06,38,11.10
2017,06,15,06,39,11.10
2017,06,15,06,40,11.10
2017,06,15,06,41,11.10
2017,06,15,06,42,11.20
2017,06,15,06,43,11.20
2017,06,15,06,44,11.30
2017,06,15,06,45,11.30
2017,06,15,06,46,11.30
2017,06,15,06,47,11.30
2017,06,15,06,48,11.30
2017,06,15,06,49,11.30
2017,06,15,06,50,11.30
2017,06,15,06,51,11.30
2017,06,15,06,52,11.30
2017,06,15,06,53,11.30
2017,06,15,06,54,11.30
2017,06,15,06,55,11.20
2017,06,15,06,56,11.30
2017,06,15,06,57,11.30
2017,06,15,06,58,11.30
2017,06,15,06,59,11.30
2017,06,15,07,00,11.30
2017,06,15,07,01,11.30
2017,06,15,07,02,11.40
2017,06,15,07,03,11.40
2017,06,15,07,04,11.40
2017,06,15,07,05,11.40
2017,06,15,07,06,11.40
2017,06,15,07,07,11.40
2017,06,15,07,08,11.40
2017,06,15,07,09,11.40
2017,06,15,07,10,11.40
2017,06,15,07,11,11.40
2017,06,15,07,12,11.50
2017,06,15,07,13,11.60
2017,06,15,07,14,11.60
2017,06,15,07,15,11.60
2017,06,15,07,16,11.70
2017,06,15,07,17,11.70
2017,06,15,07,18,11.80
2017,06,15,07,19,11.80
2017,06,15,07,20,11.80
2017,06,15,07,21,11.90
2017,06,15,07,22,11.90
2017,06,15,07,23,11.90
2017,06,15,07,24,11.90
2017,06,15,07,25,11.90
2017,06,15,07,26,11.90
2017,06,15,07,27,11.90
2017,06,15,07,28,11.80
2017,06,15,07,29,11.80
2017,06,15,07,30,11.80
2017,06,15,07,31,11.80
2017,06,15,07,32,11.80
2017,06,15,07,33,11.80
2017,06,15,07,34,11.80
2017,06,15,07,35,11.80
2017,06,15,07,36,11.80
2017,06,15,07,37,11.80
2017,06,15,07,38,11.80
2017,06,15,07,39,11.80
2017,06,15,07,40,11.80
2017,06,15,07,41,11.80
2017,06,15,07,42,11.80
2017,06,15,07,43,11.80
2017,06,15,07,44,11.70
2017,06,15,07,45,11.70
2017,06,15,07,46,11.70
2017,06,15,07,47,11.70
2017,06,15,07,48,11.70
2017,06,15,07,49,11.70
2017,06,15,07,50,11.70
2017,06,15,07,51,11.70
2017,06,15,07,52,11.80
2017,06,15,07,53,11.80
2017,06,15,07,54,11.80
2017,06,15,07,55,11.80
2017,06,15,07,56,11.80
2017,06,15,07,57,11.80
2017,06,15,07,58,11.80
2017,06,15,07,59,11.80
2017,06,15,08,00,11.70
2017,06,15,08,01,11.70
2017,06,15,08,02,11.70
2017,06,15,08,03,11.70
2017,06,15,08,04,11.70
2017,06,15,08,05,11.80
2017,06,15,08,06,11.80
2017,06,15,08,07,11.80
2017,06,15,08,08,11.80
2017,06,15,08,09,11.80
2017,06,15,08,10,11.80
2017,06,15,08,11,11.80
2017,06,15,08,12,11.80
2017,06,15,08,13,11.80
2017,06,15,08,14,11.80
2017,06,15,08,15,11.80
2017,06,15,08,16,11.70
2017,06,15,08,17,11.70
2017,06,15,08,18,11.70
2017,06,15,08,19,11.70
2017,06,15,08,20,11.70
2017,06,15,08,21,11.70
2017,06,15,08,22,11.70
2017,06,15,08,23,11.70
2017,06,15,08,24,11.70
2017,06,15,08,25,11.80
2017,06,15,08,26,11.80
2017,06,15,08,27,11.80
2017,06,15,08,28,11.80
2017,06,15,08,29,11.70
2017,06,15,08,30,11.70
2017,06,15,08,31,11.70
2017,06,15,08,32,11.70
2017,06,15,08,33,11.70
2017,06,15,08,34,11.70
2017,06,15,08,35,11.70
2017,06,15,08,36,11.70
2017,06,15,08,37,11.70
2017,06,15,08,38,11.70
2017,06,15,08,39,11.70
2017,06,15,08,40,11.70
2017,06,15,08,41,11.70
2017,06,15,08,42,11.70
2017,06,15,08,43,11.70
2017,06,15,08,44,11.70
2017,06,15,08,45,11.70
2017,06,15,08,46,11.70
2017,06,15,08,47,11.70
2017,06,15,08,48,11.70
2017,06,15,08,49,11.70
2017,06,15,08,50,11.70
2017,06,15,08,51,11.70
2017,06,15,08,52,11.70
2017,06,15,08,53,11.70
2017,06,15,08,54,11.70
2017,06,15,08,55,11.70
2017,06,15,08,56,11.70
2017,06,15,08,57,11.70
2017,06,15,08,58,11.70
2017,06,15,08,59,11.70
2017,06,15,09,00,11.70
2017,06,15,09,01,11.70
2017,06,15,09,02,11.70
2017,06,15,09,03,11.70
2017,06,15,09,04,11.70
2017,06,15,09,05,11.70
2017,06,15,09,06,11.70
2017,06,15,09,07,11.70
2017,06,15,09,08,11.70
2017,06,15,09,09,11.80
2017,06,15,09,10,11.80
2017,06,15,09,11,11.80
2017,06,15,09,12,11.80
2017,06,15,09,13,11.80
2017,06,15,09,14,11.80
2017,06,15,09,15,11.80
2017,06,15,09,16,11.80
2017,06,15,09,17,11.80
2017,06,15,09,18,11.80
2017,06,15,09,19,11.80
2017,06,15,09,20,11.80
2017,06,15,09,21,11.80
2017,06,15,09,22,11.80
2017,06,15,09,23,11.80
2017,06,15,09,24,11.70
2017,06,15,09,25,11.70
2017,06,15,09,26,11.70
2017,06,15,09,27,11.70
2017,06,15,09,28,11.70
2017,06,15,09,29,11.80
2017,06,15,09,30,11.80
2017,06,15,09,31,11.80
2017,06,15,09,32,11.80
2017,06,15,09,33,11.80
2017,06,15,09,34,11.80
2017,06,15,09,35,11.80
2017,06,15,09,36,11.80
2017,06,15,09,37,11.80
2017,06,15,09,38,11.80
2017,06,15,09,39,11.90
2017,06,15,09,40,11.90
2017,06,15,09,41,11.90
2017,06,15,09,42,11.90
2017,06,15,09,43,11.90
2017,06,15,09,44,12.00
2017,06,15,09,45,12.00
2017,06,15,09,46,12.00
2017,06,15,09,47,12.10
2017,06,15,09,48,12.10
2017,06,15,09,49,12.10
2017,06,15,09,50,12.10
2017,06,15,09,51,12.10
2017,06,15,09,52,12.10
2017,06,15,09,53,12.10
2017,06,15,09,54,12.10
2017,06,15,09,55,12.20
2017,06,15,09,56,12.20
2017,06,15,09,57,12.20
